| time (UTC) | temp F | wind direction | speed MPH | gust MPH | rain 1hr in | rain 24hr in | rain mn in | humidity % | barometer mb |
| 20260507181520 | 65 | 243 | 1.0 | 7.0 | 0.00 | 0.23 | 0.15 | 30 | 1006.0 |
| 20260507180022 | 65 | 308 | 1.0 | 8.0 | 0.00 | 0.23 | 0.15 | 31 | 1006.2 |
| 20260507174513 | 65 | 330 | 1.0 | 6.0 | 0.00 | 0.23 | 0.15 | 35 | 1006.2 |
| 20260507173034 | 65 | 217 | 0.0 | 5.0 | 0.00 | 0.23 | 0.15 | 38 | 1006.3 |
| 20260507171522 | 65 | 356 | 1.0 | 5.0 | 0.00 | 0.23 | 0.15 | 36 | 1006.3 |
| 20260507170013 | 65 | 279 | 2.0 | 7.0 | 0.00 | 0.23 | 0.15 | 35 | 1006.4 |
| 20260507164519 | 64 | 195 | 1.0 | 7.0 | 0.00 | 0.23 | 0.15 | 40 | 1006.7 |
| 20260507163018 | 65 | 304 | 1.0 | 5.0 | 0.00 | 0.23 | 0.15 | 42 | 1006.6 |
| 20260507161503 | 63 | 297 | 3.0 | 9.0 | 0.00 | 0.23 | 0.15 | 44 | 1006.9 |
| 20260507160004 | 63 | 197 | 0.0 | 7.0 | 0.00 | 0.23 | 0.15 | 48 | 1006.9 |
| 20260507154508 | 62 | 233 | 0.0 | 8.0 | 0.00 | 0.23 | 0.15 | 49 | 1007.0 |
| 20260507153012 | 60 | 255 | 1.0 | 6.0 | 0.00 | 0.23 | 0.15 | 56 | 1007.1 |
| 20260507151516 | 62 | 287 | 0.0 | 5.0 | 0.00 | 0.23 | 0.15 | 54 | 1007.3 |
| 20260507150004 | 62 | 301 | 0.0 | 2.0 | 0.00 | 0.23 | 0.15 | 57 | 1007.3 |
| 20260507144504 | 62 | 330 | 0.0 | 3.0 | 0.00 | 0.23 | 0.15 | 58 | 1007.5 |
| 20260507143018 | 60 | 237 | 0.0 | 3.0 | 0.00 | 0.23 | 0.15 | 58 | 1007.9 |
| 20260507141518 | 59 | 207 | 0.0 | 6.0 | 0.00 | 0.23 | 0.15 | 62 | 1007.8 |
| 20260507140021 | 59 | 31 | 0.0 | 4.0 | 0.00 | 0.23 | 0.15 | 62 | 1007.8 |
| 20260507134503 | 58 | 353 | 0.0 | 4.0 | 0.00 | 0.23 | 0.15 | 65 | 1007.8 |
| 20260507133008 | 57 | 15 | 1.0 | 4.0 | 0.00 | 0.23 | 0.15 | 70 | 1007.8 |
| 20260507131517 | 56 | 257 | 1.0 | 4.0 | 0.00 | 0.23 | 0.15 | 74 | 1007.9 |
| 20260507130016 | 55 | 262 | 0.0 | 3.0 | 0.00 | 0.23 | 0.15 | 72 | 1007.9 |
| 20260507124521 | 54 | 257 | 1.0 | 6.0 | 0.00 | 0.23 | 0.15 | 64 | 1008.1 |
| 20260507123004 | 52 | 240 | 0.0 | 3.0 | 0.00 | 0.23 | 0.15 | 44 | 1008.1 |
| 20260507121511 | 50 | 242 | 0.0 | 3.0 | 0.00 | 0.23 | 0.15 | 16 | 1007.9 |
| 20260507120010 | 50 | 259 | 0.0 | 0.0 | 0.00 | 0.23 | 0.15 | 2 | 1007.8 |
| 20260507114514 | 49 | 244 | 0.0 | 0.0 | 0.00 | 0.23 | 0.15 | 4 | 1008.0 |
| 20260507113039 | 49 | 250 | 0.0 | 1.0 | 0.00 | 0.23 | 0.15 | 4 | 1007.9 |
| 20260507111535 | 49 | 212 | 0.0 | 0.0 | 0.00 | 0.23 | 0.15 | 3 | 1007.8 |
| 20260507110011 | 49 | 212 | 0.0 | 0.0 | 0.00 | 0.23 | 0.15 | 5 | 1007.6 |
| 20260507104513 | 49 | 212 | 0.0 | 0.0 | 0.01 | 0.23 | 0.15 | 7 | 1007.8 |
| 20260507103021 | 49 | 212 | 0.0 | 0.0 | 0.03 | 0.23 | 0.15 | 10 | 1008.1 |
| 20260507101525 | 48 | 136 | 0.0 | 0.0 | 0.05 | 0.23 | 0.15 | 14 | 1007.5 |
| 20260507100026 | 48 | 250 | 0.0 | 0.0 | 0.09 | 0.23 | 0.15 | 18 | 1007.7 |
| 20260507094516 | 48 | 250 | 0.0 | 0.0 | 0.10 | 0.22 | 0.14 | 24 | 1007.3 |
| 20260507093018 | 49 | 320 | 0.0 | 2.0 | 0.08 | 0.20 | 0.12 | 26 | 1007.3 |
| 20260507091523 | 49 | 50 | 0.0 | 0.0 | 0.07 | 0.18 | 0.10 | 34 | 1007.3 |
| 20260507090026 | 49 | 276 | 0.0 | 2.0 | 0.04 | 0.14 | 0.06 | 40 | 1007.5 |
| 20260507084534 | 50 | 257 | 0.0 | 1.0 | 0.03 | 0.12 | 0.04 | 44 | 1007.5 |
| 20260507083012 | 50 | 249 | 0.0 | 0.0 | 0.04 | 0.12 | 0.04 | 49 | 1007.2 |
| 20260507081520 | 51 | 259 | 0.0 | 4.0 | 0.03 | 0.11 | 0.03 | 57 | 1007.1 |
| 20260507080021 | 52 | 259 | 0.0 | 5.0 | 0.02 | 0.10 | 0.02 | 64 | 1007.5 |
| 20260507074523 | 53 | 336 | 0.0 | 2.0 | 0.01 | 0.09 | 0.01 | 68 | 1007.1 |
| 20260507073029 | 54 | 300 | 0.0 | 3.0 | 0.00 | 0.08 | 0.00 | 72 | 1006.9 |
| 20260507071513 | 55 | 34 | 0.0 | 3.0 | 0.00 | 0.08 | 0.00 | 70 | 1006.0 |
| 20260507070021 | 55 | 295 | 0.0 | 1.0 | 0.00 | 0.08 | 0.00 | 71 | 1006.1 |
| 20260507064525 | 55 | 47 | 0.0 | 2.0 | 0.00 | 0.08 | 0.00 | 69 | 1006.0 |
| 20260507063028 | 56 | 288 | 0.0 | 2.0 | 0.00 | 0.08 | 0.00 | 69 | 1006.2 |
| 20260507061529 | 56 | 256 | 0.0 | 1.0 | 0.00 | 0.08 | 0.00 | 63 | 1006.1 |
| 20260507060016 | 57 | 37 | 0.0 | 2.0 | 0.00 | 0.08 | 0.00 | 62 | 1006.1 |
| 20260507054520 | 57 | 131 | 0.0 | 5.0 | 0.00 | 0.08 | 0.00 | 62 | 1006.2 |
| 20260507053028 | 57 | 300 | 0.0 | 4.0 | 0.00 | 0.08 | 0.00 | 61 | 1006.5 |
| 20260507051528 | 58 | 249 | 0.0 | 0.0 | 0.00 | 0.08 | 0.00 | 55 | 1006.3 |
| 20260507050031 | 58 | 257 | 0.0 | 5.0 | 0.00 | 0.08 | 0.00 | 55 | 1006.1 |
| 20260507044517 | 59 | 53 | 1.0 | 5.0 | 0.00 | 0.08 | 0.00 | 26 | 1006.3 |
| 20260507043010 | 59 | 244 | 0.0 | 0.0 | 0.00 | 0.08 | 0.00 | 8 | 1006.1 |
| 20260507041504 | 59 | 290 | 0.0 | 3.0 | 0.00 | 0.08 | 0.00 | 100 | 1006.1 |
| 20260507040008 | 60 | 234 | 0.0 | 0.0 | 0.00 | 0.08 | 0.00 | 100 | 1006.4 |
| 20260507034522 | 60 | 196 | 0.0 | 2.0 | 0.00 | 0.08 | 0.08 | 100 | 1006.4 |
| 20260507033020 | 60 | 248 | 2.0 | 10.0 | 0.00 | 0.08 | 0.08 | 100 | 1006.0 |
| 20260507031505 | 60 | 217 | 1.0 | 7.0 | 0.00 | 0.08 | 0.08 | 1 | 1006.0 |
| 20260507030007 | 60 | 239 | 2.0 | 11.0 | 0.00 | 0.08 | 0.08 | 2 | 1005.8 |
| 20260507024514 | 60 | 203 | 3.0 | 7.0 | 0.00 | 0.08 | 0.08 | 100 | 1005.6 |
| 20260507023018 | 59 | 217 | 1.0 | 10.0 | 0.00 | 0.08 | 0.08 | 100 | 1006.1 |
| 20260507021523 | 59 | 219 | 1.0 | 13.0 | 0.00 | 0.08 | 0.08 | 100 | 1005.9 |
| 20260507020006 | 59 | 225 | 4.0 | 10.0 | 0.00 | 0.08 | 0.08 | 100 | 1005.9 |
| 20260507014506 | 59 | 210 | 5.0 | 12.0 | 0.00 | 0.08 | 0.08 | 100 | 1005.9 |
| 20260507013013 | 59 | 217 | 4.0 | 12.0 | 0.00 | 0.08 | 0.08 | 100 | 1006.1 |
| 20260507011532 | 59 | 200 | 3.0 | 12.0 | 0.00 | 0.08 | 0.08 | 100 | 1006.2 |
| 20260507010024 | 59 | 213 | 4.0 | 11.0 | 0.00 | 0.08 | 0.08 | 100 | 1006.4 |
| 20260507004506 | 59 | 232 | 3.0 | 10.0 | 0.00 | 0.08 | 0.08 | 100 | 1006.4 |
| 20260507003008 | 58 | 252 | 4.0 | 11.0 | 0.01 | 0.08 | 0.08 | 100 | 1006.3 |
| 20260507001538 | 59 | 243 | 1.0 | 12.0 | 0.02 | 0.08 | 0.08 | 100 | 1006.1 |
| 20260507000023 | 59 | 229 | 3.0 | 13.0 | 0.03 | 0.08 | 0.08 | 1 | 1005.8 |
| 20260506234524 | 59 | 229 | 3.0 | 11.0 | 0.03 | 0.08 | 0.08 | 3 | 1005.9 |
| 20260506233009 | 59 | 243 | 2.0 | 10.0 | 0.02 | 0.07 | 0.07 | 6 | 1005.8 |
| 20260506231511 | 60 | 196 | 4.0 | 15.0 | 0.01 | 0.06 | 0.06 | 12 | 1005.9 |
| 20260506230017 | 60 | 250 | 1.0 | 10.0 | 0.00 | 0.05 | 0.05 | 16 | 1005.8 |
| 20260506224522 | 60 | 246 | 3.0 | 8.0 | 0.00 | 0.05 | 0.05 | 13 | 1005.9 |
| 20260506223031 | 60 | 226 | 4.0 | 12.0 | 0.01 | 0.05 | 0.05 | 11 | 1006.0 |
| 20260506221508 | 60 | 224 | 1.0 | 11.0 | 0.01 | 0.05 | 0.05 | 11 | 1006.3 |
| 20260506220012 | 60 | 162 | 2.0 | 9.0 | 0.01 | 0.05 | 0.05 | 15 | 1006.4 |
| 20260506214517 | 61 | 192 | 2.0 | 13.0 | 0.01 | 0.05 | 0.05 | 27 | 1006.5 |
| 20260506213020 | 61 | 198 | 3.0 | 13.0 | 0.00 | 0.04 | 0.04 | 43 | 1006.8 |
| 20260506211526 | 62 | 203 | 7.0 | 14.0 | 0.01 | 0.04 | 0.04 | 48 | 1006.7 |
| 20260506210009 | 62 | 168 | 5.0 | 11.0 | 0.01 | 0.04 | 0.04 | 50 | 1006.8 |
| 20260506204514 | 61 | 109 | 5.0 | 16.0 | 0.02 | 0.04 | 0.04 | 49 | 1006.8 |
| 20260506203022 | 62 | 172 | 4.0 | 15.0 | 0.02 | 0.04 | 0.04 | 58 | 1007.0 |
| 20260506201526 | 62 | 231 | 2.0 | 11.0 | 0.02 | 0.03 | 0.03 | 58 | 1006.8 |
| 20260506200032 | 63 | 185 | 4.0 | 10.0 | 0.03 | 0.03 | 0.03 | 65 | 1006.7 |
| 20260506194516 | 64 | 155 | 4.0 | 9.0 | 0.02 | 0.02 | 0.02 | 70 | 1006.8 |
| 20260506193029 | 65 | 194 | 4.0 | 11.0 | 0.02 | 0.02 | 0.02 | 72 | 1007.0 |
| 20260506191521 | 67 | 228 | 2.0 | 7.0 | 0.01 | 0.01 | 0.01 | 72 | 1007.0 |
| 20260506190031 | 68 | 212 | 4.0 | 9.0 | 0.00 | 0.00 | 0.00 | 67 | 1006.9 |
| 20260506184537 | 69 | 212 | 4.0 | 9.0 | 0.00 | 0.00 | 0.00 | 65 | 1006.9 |
| 20260506183015 | 70 | 161 | 4.0 | 17.0 | 0.00 | 0.00 | 0.00 | 61 | 1007.1 |